Weather History for Rotterdam, Netherlands

Change the Weather History Date:

Saturday, December 28, 2013

  Actual Average Record
Temperature  
Mean Temperature 44 °F -  
Max Temperature 48 °F 41 °F 50 °F (1998)
Min Temperature 39 °F 33 °F 14 °F (1996)
Degree Days  
Heating Degree Days 22    
Moisture  
Dew Point 41 °F    
Average Humidity 86    
Maximum Humidity 93    
Minimum Humidity 71    
Precipitation  
Precipitation 0.00 in - - ()
Sea Level Pressure  
Sea Level Pressure 29.47 in    
Wind  
Wind Speed 11 mph ()    
Max Wind Speed 15 mph    
Max Gust Speed -    
Visibility 8.4 miles    
Events Rain    
Averages and records for this station are not official NWS values.
T = Trace of Precipitation, MM = Missing Value Source: Averaged Metar Reports

Daily Weather History Graph

Daily Weather History Graph

Search for Another Location

Airport:

Trip Planner

Search our weather history database for the weather conditions in past years. The results will help you decide how hot, cold, wet, or windy it might be!

Date:

Astronomy

Dec. 28, 2013 Rise Set
Actual Time 8:50 AM CET 4:37 PM CET
Civil Twilight 8:09 AM CET 5:18 PM CET
Nautical Twilight 7:25 AM CET 6:02 PM CET
Astronomical Twilight 6:44 AM CET 6:43 PM CET
Moon 3:50 AM CET (12/28) 1:34 PM CET (12/28)
Length of Visible Light 9h 09m
Length of Day
7h 47m
Waning Crescent, 21% of the Moon is Illuminated
Dec 28
Waning Crescent
Jan 1
New
Jan 8
First Quarter
Jan 16
Full
Jan 24
Last Quarter

Hourly Weather History & Observations

Time (CET) Temp. Windchill Dew Point Humidity Pressure Visibility Wind Dir Wind Speed Gust Speed Precip Events Conditions
12:00 AM 47 °F - 44 °F 84% 29.34 in 15 mi SSW 13.4 mph - - Rain Rain
12:25 AM 46.4 °F 40.1 °F 42.8 °F 87% 29.33 in 6.2 mi SSW 15.0 mph - N/A Rain Light Rain
12:55 AM 46.4 °F 40.7 °F 42.8 °F 87% 29.33 in 6.2 mi South 12.7 mph - N/A Rain Light Rain
1:00 AM 46 °F - 43 °F 86% 29.34 in 10 mi South 13.4 mph - - Rain Light Rain Showers
1:25 AM 46.4 °F 40.7 °F 42.8 °F 87% 29.33 in 6.2 mi South 12.7 mph - N/A Rain Light Rain
1:55 AM 46.4 °F 40.4 °F 42.8 °F 87% 29.33 in 6.2 mi South 13.8 mph - N/A Rain Drizzle
2:00 AM 46 °F - 43 °F 87% 29.35 in 10 mi SSW 13.4 mph - - Rain Light Rain
2:25 AM 46.4 °F 40.7 °F 42.8 °F 87% 29.33 in 6.2 mi South 12.7 mph - N/A   Mostly Cloudy
2:55 AM 46.4 °F 41.5 °F 42.8 °F 87% 29.33 in 6.2 mi SSW 10.4 mph - N/A Rain Light Rain
3:00 AM 46 °F - 43 °F 87% 29.36 in 9 mi SSW 11.2 mph - - Rain Light Rain
3:25 AM 46.4 °F 41.1 °F 42.8 °F 87% 29.33 in 6.2 mi SSW 11.5 mph - N/A Rain Light Rain
3:55 AM 46.4 °F 40.1 °F 42.8 °F 87% 29.33 in 6.2 mi South 15.0 mph - N/A   Partly Cloudy
4:00 AM 46 °F - 43 °F 84% 29.35 in 16 mi South 13.4 mph - - Rain Rain
4:25 AM 46.4 °F 40.1 °F 42.8 °F 87% 29.33 in 6.2 mi South 15.0 mph - N/A   Light Drizzle
4:55 AM 46.4 °F 40.7 °F 44.6 °F 93% 29.36 in 6.2 mi SSW 12.7 mph - N/A Rain Light Rain
5:00 AM 45 °F - 44 °F 93% 29.37 in 8 mi South 11.2 mph - - Rain Light Rain Showers
5:25 AM 44.6 °F 39.2 °F 42.8 °F 93% 29.36 in 6.2 mi SSW 10.4 mph - N/A Rain Light Rain
5:55 AM 44.6 °F 39.2 °F 42.8 °F 93% 29.36 in 6.2 mi SSW 10.4 mph - N/A Rain Light Rain
6:00 AM 45 °F - 42 °F 86% 29.37 in 14 mi South 13.4 mph - - Rain Light Drizzle
6:25 AM 44.6 °F 38.1 °F 41.0 °F 87% 29.36 in 6.2 mi South 13.8 mph - N/A   Partly Cloudy
6:55 AM 44.6 °F 38.4 °F 42.8 °F 93% 29.36 in 6.2 mi South 12.7 mph - N/A   Partly Cloudy
7:00 AM 45 °F - 43 °F 91% 29.39 in 14 mi South 8.9 mph - - Rain Rain
7:25 AM 44.6 °F 38.4 °F 42.8 °F 93% 29.39 in 6.2 mi South 12.7 mph - N/A   Overcast
7:55 AM 44.6 °F 38.4 °F 42.8 °F 93% 29.39 in 6.2 mi South 12.7 mph - N/A   Mostly Cloudy
8:00 AM 45 °F - 43 °F 89% 29.41 in 12 mi South 13.4 mph - -   Overcast
8:25 AM 44.6 °F 38.4 °F 42.8 °F 93% 29.42 in 6.2 mi South 12.7 mph - N/A   Partly Cloudy
8:55 AM 44.6 °F 38.4 °F 42.8 °F 93% 29.42 in 6.2 mi South 12.7 mph - N/A   Partly Cloudy
9:00 AM 44 °F - 42 °F 91% 29.45 in 16 mi South 11.2 mph - -   Overcast
9:25 AM 44.6 °F 38.8 °F 42.8 °F 93% 29.44 in 6.2 mi South 11.5 mph - N/A   Partly Cloudy
9:55 AM 44.6 °F 38.4 °F 42.8 °F 93% 29.44 in 6.2 mi SSW 12.7 mph - N/A   Scattered Clouds
10:00 AM 44 °F - 42 °F 90% 29.47 in 9 mi South 13.4 mph - -   Scattered Clouds
10:25 AM 44.6 °F 38.4 °F 42.8 °F 93% 29.47 in 6.2 mi South 12.7 mph - N/A   Mostly Cloudy
10:55 AM 44.6 °F 38.8 °F 42.8 °F 93% 29.47 in 6.2 mi SSW 11.5 mph - N/A   Unknown
11:00 AM 46 °F - 42 °F 81% 29.50 in 16 mi SSW 13.4 mph - -   Scattered Clouds
11:25 AM 46.4 °F 40.4 °F 42.8 °F 87% 29.47 in 6.2 mi SSW 13.8 mph - N/A   Partly Cloudy
11:55 AM 46.4 °F 40.7 °F 42.8 °F 87% 29.47 in 6.2 mi SW 12.7 mph - N/A   Partly Cloudy
12:00 PM 47 °F - 42 °F 78% 29.50 in 17 mi SW 13.4 mph - -  
12:25 PM 48.2 °F - 42.8 °F 82% 29.47 in 6.2 mi SW 12.7 mph - N/A   Unknown
12:55 PM 48.2 °F - 41.0 °F 76% 29.47 in 6.2 mi SW 13.8 mph - N/A   Unknown
1:00 PM 48 °F - 42 °F 71% 29.51 in 16 mi SW 13.4 mph - -   Partly Cloudy
1:25 PM 48.2 °F - 41.0 °F 76% 29.50 in 6.2 mi SW 15.0 mph - N/A   Unknown
1:55 PM 48.2 °F - 41.0 °F 76% 29.50 in 6.2 mi SW 11.5 mph - N/A   Unknown
2:00 PM 48 °F - 42 °F 71% 29.50 in 16 mi SW 11.2 mph - -  
2:25 PM 48.2 °F - 41.0 °F 76% 29.47 in 6.2 mi SW 11.5 mph - N/A   Unknown
2:55 PM 46.4 °F 41.1 °F 41.0 °F 81% 29.50 in 6.2 mi SW 11.5 mph - N/A   Partly Cloudy
3:00 PM 47 °F - 41 °F 73% 29.52 in 15 mi SSW 11.2 mph - -   Scattered Clouds
3:25 PM 46.4 °F 41.1 °F 41.0 °F 81% 29.50 in 6.2 mi SSW 11.5 mph - N/A   Partly Cloudy
3:55 PM 46.4 °F 40.7 °F 41.0 °F 81% 29.53 in 6.2 mi South 12.7 mph - N/A   Partly Cloudy
4:00 PM 46 °F - 42 °F 80% 29.55 in 13 mi South 13.4 mph - -   Scattered Clouds
4:25 PM 44.6 °F 38.8 °F 42.8 °F 93% 29.53 in 6.2 mi South 11.5 mph - N/A   Scattered Clouds
4:55 PM 44.6 °F 39.2 °F 41.0 °F 87% 29.53 in 6.2 mi SSW 10.4 mph - N/A   Unknown
5:00 PM 45 °F - 41 °F 82% 29.55 in 10 mi SSW 11.2 mph - -  
5:25 PM 46.4 °F 41.1 °F 41.0 °F 81% 29.53 in 6.2 mi SSW 11.5 mph - N/A   Unknown
5:55 PM 44.6 °F 38.4 °F 41.0 °F 87% 29.53 in 6.2 mi SSW 12.7 mph - N/A   Unknown
6:00 PM 45 °F - 41 °F 81% 29.57 in 11 mi SSW 13.4 mph - -  
6:25 PM 44.6 °F 39.2 °F 41.0 °F 87% 29.56 in 6.2 mi SSW 10.4 mph - N/A   Unknown
6:55 PM 44.6 °F 39.7 °F 41.0 °F 87% 29.56 in 6.2 mi SSW 9.2 mph - N/A   Unknown
7:00 PM 44 °F - 41 °F 84% 29.59 in 11 mi SSW 11.2 mph - -   Partly Cloudy
7:25 PM 42.8 °F 37.5 °F 41.0 °F 93% 29.59 in 6.2 mi SSW 9.2 mph - N/A   Unknown
7:55 PM 41.0 °F 36.4 °F 39.2 °F 93% 29.59 in 6.2 mi SSW 6.9 mph - N/A   Unknown
8:00 PM 41 °F - 39 °F 88% 29.60 in 10 mi SSW 6.7 mph - -   Scattered Clouds
8:25 PM 42.8 °F 36.6 °F 39.2 °F 87% 29.59 in 6.2 mi SW 11.5 mph - N/A   Unknown
8:55 PM 42.8 °F 37.5 °F 39.2 °F 87% 29.59 in 6.2 mi SSW 9.2 mph - N/A   Unknown
9:00 PM 41 °F - 38 °F 85% 29.63 in 15 mi SSW 8.9 mph - -   Partly Cloudy
9:25 PM 41.0 °F 35.8 °F 37.4 °F 87% 29.62 in 6.2 mi South 8.1 mph - N/A   Unknown
9:55 PM 41.0 °F 35.8 °F 39.2 °F 93% 29.62 in 6.2 mi South 8.1 mph - N/A   Unknown
10:00 PM 41 °F - 38 °F 86% 29.64 in 9 mi South 8.9 mph - -  
10:25 PM 41.0 °F 36.4 °F 37.4 °F 87% 29.62 in 6.2 mi South 6.9 mph - N/A   Unknown
10:55 PM 41.0 °F 35.8 °F 37.4 °F 87% 29.65 in 6.2 mi SSW 8.1 mph - N/A   Unknown
11:00 PM 41 °F - 37 °F 82% 29.66 in 14 mi SW 8.9 mph - -  
11:25 PM 39.2 °F 33.6 °F 37.4 °F 93% 29.65 in 6.2 mi SSW 8.1 mph - N/A   Unknown
11:55 PM 39.2 °F 34.2 °F 37.4 °F 93% 29.65 in 6.2 mi SSW 6.9 mph - N/A   Unknown